GFSSW_sfc_30mbdewp_057.txt.gz
Dewpoint
54 54 54 54 54 55 55 55 55 55 55 55 55 55 57 58 55 47 22 19 37 65 64 63 64 57 58 55 55 52 46 40 40 40 39 41 39 47 50 55 56 57 58 60 65
54 54 54 54 54 54 55 55 55 55 55 55 54 55 57 58 44 27 26 39 53 65 47 44 41 49 45 47 44 41 38 37 41 42 40 39 39 41 47 55 57 57 61 66 67
53 53 53 53 53 54 54 54 54 54 54 54 54 55 57 58 34 30 49 49 55 60 32 31 27 23 18 18 23 36 31 32 36 40 43 40 39 41 44 52 56 56 62 66 67
53 53 52 52 52 53 53 54 54 54 54 54 54 55 58 52 28 33 58 53 56 48 34 23 16 14 18 21 23 21 22 25 32 37 43 40 40 41 38 39 57 58 61 66 66
52 52 52 52 52 52 53 53 54 53 53 53 54 55 46 21 14 53 55 56 45 33 24 13 10 17 21 22 20 22 20 21 22 25 40 41 41 42 43 53 58 59 60 63 65
52 52 51 51 52 53 53 53 53 52 53 53 54 56 36 1 16 51 43 42 30 23 13 11 10 24 22 19 19 20 19 21 31 42 43 39 44 42 45 58 58 58 59 62 63
51 51 51 51 52 52 53 53 52 52 52 53 54 55 36 3 19 43 35 23 22 17 10 20 23 21 20 19 20 17 23 30 32 37 42 42 40 42 50 59 58 59 60 62 62
51 50 51 52 52 52 52 52 51 52 53 55 56 51 13 18 32 30 29 23 25 19 18 19 22 20 20 19 13 17 30 23 27 33 40 38 28 37 55 58 58 59 60 63 62
50 50 51 52 52 52 52 50 51 52 55 56 50 38 21 28 24 27 27 23 24 23 21 19 17 16 14 10 7 15 17 23 28 30 32 32 27 31 49 57 57 58 61 62 62
50 51 51 52 52 52 51 48 43 51 52 53 45 25 12 11 21 19 20 24 17 11 16 17 16 14 13 10 0 12 18 24 23 27 31 29 25 34 44 52 56 57 61 61 61
50 51 51 51 51 51 49 24 24 22 28 22 26 15 20 21 25 19 18 11 10 10 5 16 13 12 13 13 12 10 11 11 14 21 27 25 26 28 40 43 50 55 60 61 60
49 50 51 51 50 50 48 21 29 24 22 21 21 26 25 25 19 17 17 11 12 12 15 12 10 11 14 15 14 12 10 10 11 18 29 27 30 42 39 40 46 56 60 61 61
50 50 51 50 49 42 25 22 28 26 19 18 19 16 14 18 14 15 15 11 9 10 12 11 10 12 13 12 11 12 11 9 12 27 28 25 24 38 46 51 45 59 60 61 61
50 50 50 49 30 38 23 28 31 27 15 7 14 12 10 12 9 16 15 10 10 6 10 11 13 12 12 10 10 6 11 13 25 26 11 23 14 34 45 49 55 57 60 62 62
50 50 50 49 40 31 23 32 27 19 -5 3 11 11 7 2 2 6 11 10 7 7 11 9 10 10 9 9 8 6 9 19 18 13 13 14 13 27 44 45 52 62 63 64 63
49 49 49 43 42 34 35 30 23 17 -4 5 12 5 3 3 3 6 6 7 9 6 11 11 14 12 11 11 10 7 6 10 18 14 7 14 21 23 41 42 55 63 63 64 64
49 49 48 45 11 35 30 22 14 12 12 4 8 9 3 1 1 2 2 2 1 2 1 8 10 13 13 10 10 6 4 -0 -2 3 4 20 23 39 46 58 58 53 51 52 51
48 48 46 46 43 36 25 18 12 11 10 14 12 10 7 3 2 2 2 2 4 8 9 7 6 10 13 11 10 6 3 -0 -3 1 6 19 17 48 57 58 51 51 48 47 45
48 42 42 42 45 34 22 14 10 14 18 14 12 11 10 10 5 4 2 2 3 7 1 7 8 12 13 12 11 10 8 8 8 15 10 17 48 56 54 51 48 47 50 51 65
44 41 35 42 42 26 20 15 16 20 16 13 11 13 11 10 11 14 5 8 5 9 9 7 6 9 9 13 12 10 12 8 12 7 7 12 36 45 53 48 47 49 47 53 60
42 37 31 40 27 21 18 18 18 15 14 15 15 14 13 10 12 10 14 17 18 18 13 12 9 9 11 10 9 9 8 14 12 14 8 12 24 38 54 53 51 51 49 50 58
38 31 34 33 14 21 15 18 17 15 18 17 18 17 14 12 9 8 13 17 24 22 10 13 10 8 9 12 19 12 10 10 7 8 23 21 22 45 50 54 53 47 48 55 61
29 35 39 25 18 18 18 16 16 10 9 13 17 15 13 10 7 11 14 18 25 29 30 16 13 6 5 10 14 21 19 20 21 20 20 18 22 48 50 51 51 50 51 55 56
37 37 35 24 21 15 15 15 13 16 15 15 16 16 13 12 15 10 14 18 20 26 39 23 21 13 7 8 17 20 21 23 22 19 22 21 26 43 48 48 48 48 49 51 50
38 31 37 26 21 22 19 17 16 15 18 18 16 16 13 10 11 13 23 23 19 26 31 32 14 23 20 21 20 19 20 22 21 22 21 22 32 36 43 46 46 48 47 48 49
30 36 33 32 31 28 25 19 18 16 17 19 15 16 15 14 17 21 27 25 19 24 24 36 29 28 19 23 25 20 18 21 25 29 29 35 34 42 47 49 48 48 45 47 50
41 42 37 32 31 27 25 24 24 25 23 24 25 24 29 31 31 29 30 29 26 25 24 30 27 31 23 29 24 13 18 22 27 32 34 30 33 43 46 49 48 47 48 51 56

GFSSW_sfc_30mbdewp_060.txt.gz
Dewpoint
54 54 54 54 54 54 54 55 55 55 55 55 54 55 56 58 54 47 15 20 44 69 68 67 63 61 62 58 58 52 47 35 36 39 38 42 41 54 54 56 56 58 60 61 65
54 54 53 53 53 54 54 55 55 55 55 55 54 54 56 58 43 28 23 48 62 65 56 51 52 54 52 49 49 45 40 32 36 39 40 40 40 50 52 55 56 59 62 64 67
53 53 53 52 52 53 54 54 54 54 54 54 54 54 56 58 32 32 46 55 61 63 44 34 38 43 34 32 28 40 31 32 29 36 42 41 40 42 50 53 56 58 63 65 66
53 52 52 52 52 53 53 54 54 53 53 54 54 54 56 51 29 34 60 61 64 60 33 28 21 15 15 21 23 24 28 30 25 31 37 40 41 40 50 48 54 62 64 65 65
52 51 51 52 52 52 52 53 53 53 53 54 54 54 44 15 4 59 63 64 61 40 28 21 11 13 20 21 21 21 20 21 23 31 33 42 40 40 42 47 59 63 65 65 65
52 51 51 51 52 52 53 53 53 53 53 54 54 55 32 -1 14 57 51 43 34 27 14 14 6 22 22 21 19 19 19 21 31 40 42 40 43 42 43 58 59 63 65 66 66
51 51 51 50 51 52 52 52 52 52 53 54 55 54 29 1 24 47 42 30 26 18 6 16 13 20 20 19 20 18 18 25 28 35 42 43 40 40 50 58 58 60 63 65 65
51 50 50 50 51 51 52 51 51 52 54 56 55 49 5 16 29 33 32 26 24 21 15 18 23 20 19 19 11 14 27 23 26 32 38 38 30 37 56 57 57 58 62 62 63
50 50 50 51 51 51 51 51 52 52 54 56 48 34 8 23 16 24 29 21 24 23 22 20 18 16 14 10 6 13 14 20 26 30 32 38 29 30 54 58 58 58 62 61 61
50 50 51 51 51 51 50 49 48 51 53 52 46 21 12 8 21 23 21 26 21 15 15 17 17 14 14 11 7 7 10 13 13 20 26 27 32 30 46 57 58 59 62 61 61
50 50 51 51 51 50 49 26 24 22 26 23 23 10 18 22 24 20 19 13 8 10 3 14 14 12 13 13 12 11 11 12 12 14 15 21 25 28 37 50 56 59 61 62 61
49 50 51 51 50 50 45 26 25 25 20 22 22 24 27 24 18 16 18 10 12 9 14 13 11 13 14 14 13 13 12 10 10 21 25 27 26 44 40 43 48 58 61 61 61
49 50 51 50 49 38 30 23 31 26 21 18 19 17 16 21 15 12 15 12 10 9 12 11 11 13 13 12 12 12 10 8 7 18 27 20 17 34 45 51 56 60 61 61 61
50 50 50 49 26 37 27 28 31 27 11 6 11 13 13 16 7 17 16 13 10 7 10 11 12 12 12 11 11 7 11 9 11 23 13 21 8 22 44 58 61 62 62 62 62
50 50 50 49 39 26 25 33 28 18 -6 2 9 13 9 4 1 9 14 12 10 8 8 6 11 11 9 9 10 8 9 12 20 19 13 13 14 14 44 57 60 61 55 55 59
50 49 48 43 41 33 34 31 22 14 -4 1 14 5 4 5 2 6 8 11 12 9 11 8 13 12 10 11 11 10 7 9 16 14 6 10 20 18 41 54 58 54 50 49 46
49 48 48 46 9 35 32 22 16 10 9 5 9 12 6 1 1 3 4 5 6 4 3 5 7 12 12 10 10 7 5 1 -2 -0 1 19 22 24 48 49 58 55 51 50 48
48 48 47 46 45 37 23 17 12 9 9 15 14 13 9 7 2 2 2 2 3 4 5 -1 -2 8 13 11 10 7 4 4 -2 -1 2 18 14 30 57 59 56 54 53 53 49
47 42 41 41 46 35 19 15 16 14 18 14 11 11 11 11 7 4 2 -1 2 6 0 7 5 12 14 12 10 10 8 8 9 14 10 13 46 51 56 53 51 51 51 50 48
41 40 39 43 44 26 20 15 13 17 16 12 10 13 11 12 9 12 5 12 7 7 7 6 1 8 10 14 12 11 13 9 11 4 2 11 33 32 53 53 50 49 49 52 62
39 31 35 43 29 20 16 17 17 19 16 14 15 12 14 13 11 9 14 17 22 20 11 9 5 5 11 10 8 10 10 12 14 13 6 7 17 36 49 54 50 48 49 51 62
32 23 37 32 14 20 17 19 18 16 17 15 16 13 12 14 10 8 13 17 22 26 11 12 8 2 3 12 16 13 9 13 7 8 21 17 16 36 46 55 52 48 52 53 56
27 31 40 26 17 15 18 16 16 11 12 9 17 15 15 12 9 9 13 18 20 31 31 15 11 5 6 8 15 20 17 15 17 21 20 16 15 45 47 52 55 52 54 56 58
34 36 34 27 22 15 16 18 16 16 14 11 10 16 14 11 14 10 14 18 22 27 33 22 17 9 5 4 14 22 22 23 22 19 20 20 20 26 43 49 53 54 53 51 53
36 29 37 25 25 23 20 19 18 18 17 18 14 14 14 11 11 12 25 21 18 25 32 26 21 23 19 19 21 19 20 23 20 21 19 22 24 26 34 48 53 51 50 50 49
30 37 37 31 33 28 27 24 21 21 20 16 15 16 15 12 10 14 26 24 19 22 24 33 27 29 20 23 27 20 20 22 24 25 28 31 28 36 41 46 50 50 48 47 47
37 42 37 31 32 27 24 24 24 25 22 19 25 25 18 25 27 29 29 29 26 24 22 27 26 29 23 31 24 18 17 21 27 31 33 28 29 37 37 44 46 47 47 47 47

GFSSW_sfc_30mbdewp_063.txt.gz
Dewpoint
54 54 54 54 54 55 55 55 55 54 54 54 55 55 56 57 56 53 22 28 64 72 65 63 62 64 66 60 59 55 43 30 27 32 30 42 45 52 54 55 55 56 58 60 66
54 53 53 53 53 54 55 55 55 54 54 54 54 55 56 57 46 30 29 62 71 69 61 58 57 58 55 50 50 47 39 27 30 30 30 37 41 49 52 54 55 58 62 64 66
53 52 52 52 53 53 54 54 54 54 54 54 54 56 56 57 32 32 54 67 68 60 54 49 51 51 39 37 37 42 29 25 25 29 30 35 39 47 49 53 53 56 60 64 65
52 52 52 52 52 52 53 53 54 54 54 54 55 56 56 48 30 34 65 68 66 48 46 31 43 20 17 19 24 29 29 29 26 22 28 37 40 40 46 45 53 58 60 63 64
52 52 51 51 51 52 52 53 53 53 54 54 55 55 41 10 4 61 68 68 65 40 28 23 16 15 13 22 23 22 21 21 20 33 36 40 39 39 43 48 55 61 61 62 63
51 51 51 50 51 52 52 52 52 53 53 54 55 55 25 0 31 59 60 61 50 34 26 19 9 14 21 22 21 21 19 19 27 40 42 39 41 42 45 56 60 61 60 61 62
51 51 51 50 50 51 52 51 52 52 54 55 56 52 23 3 39 49 43 37 33 26 12 14 9 17 21 19 22 18 17 19 29 35 41 43 40 41 51 57 60 61 61 62 64
51 50 50 50 50 51 51 51 52 53 54 56 56 49 4 15 29 36 40 30 25 24 13 19 24 21 20 20 14 14 22 20 24 31 41 39 30 34 54 56 59 61 62 63 65
50 50 50 50 51 51 51 51 52 53 55 56 47 32 3 20 14 22 31 24 24 24 23 21 21 19 16 14 14 15 12 18 21 25 32 29 17 27 52 55 57 60 62 63 63
50 50 51 51 51 51 50 50 48 51 53 52 46 24 13 7 20 23 27 25 22 17 19 19 19 17 16 13 17 12 8 11 15 21 17 15 20 23 42 54 56 58 61 62 62
50 50 51 51 51 50 49 30 23 23 24 25 24 16 16 23 24 23 20 22 13 12 8 16 12 14 15 17 15 14 14 15 15 15 17 21 26 28 40 51 56 57 61 61 61
50 50 51 51 50 49 43 26 26 25 20 23 22 22 24 24 19 18 18 13 15 11 16 15 13 15 16 16 15 15 13 11 13 22 20 24 25 45 49 50 50 58 61 61 62
50 50 50 50 49 37 32 27 30 27 22 20 21 18 16 21 16 15 16 14 13 12 14 10 11 15 13 14 13 13 13 12 11 18 27 22 20 38 52 57 55 58 61 61 62
50 50 50 49 25 36 28 31 30 29 14 7 9 13 16 19 9 17 16 14 12 9 13 12 13 13 13 13 14 11 14 12 12 15 8 23 4 31 55 58 59 60 60 61 62
50 50 49 49 37 23 27 31 28 23 -2 5 7 14 14 7 3 9 17 14 11 10 12 8 13 13 13 12 14 10 13 16 19 21 17 16 11 22 47 52 58 60 60 60 61
49 49 48 43 41 31 34 30 26 15 -1 2 13 6 6 9 4 8 13 14 15 12 13 10 13 12 9 13 13 13 12 15 19 15 6 18 19 15 36 46 56 59 59 60 61
49 48 47 45 15 36 34 24 17 10 11 5 10 12 12 4 4 4 8 10 9 11 11 10 9 11 13 9 13 11 12 9 4 3 3 25 22 21 40 48 51 57 57 53 54
48 48 47 46 45 37 25 19 16 14 11 14 14 12 12 12 4 3 7 7 8 10 11 8 4 7 11 8 8 12 13 7 4 2 3 23 14 11 48 57 59 56 58 54 53
47 41 41 41 45 39 20 17 14 18 17 14 11 10 13 13 11 7 5 6 8 10 5 7 5 12 14 15 14 15 13 14 15 19 11 12 28 39 51 55 56 58 58 56 54
42 40 36 43 44 27 16 16 19 16 17 12 12 15 13 15 11 13 8 14 7 9 13 12 3 9 11 15 15 16 17 12 15 13 10 14 23 17 38 48 55 55 56 56 54
38 29 37 44 32 19 9 18 18 19 19 13 16 11 14 13 13 11 14 19 24 18 13 13 10 7 15 14 12 14 13 16 17 17 8 8 12 33 36 49 53 55 55 54 52
32 17 38 37 14 21 15 20 19 15 18 15 17 13 8 9 15 12 15 19 25 24 16 15 14 8 4 14 16 17 17 21 10 19 23 20 8 27 36 46 55 53 55 53 52
27 29 40 31 13 16 19 17 17 14 14 13 15 16 16 14 15 13 15 18 22 31 28 18 18 8 11 11 19 18 18 21 26 28 26 17 12 40 46 47 55 54 55 54 54
34 36 34 30 25 19 19 21 19 18 15 12 8 14 17 16 18 15 16 18 23 29 34 23 22 19 7 13 17 22 21 21 24 21 25 20 23 29 36 44 49 57 56 55 56
35 30 38 27 25 25 23 23 22 21 20 18 16 12 14 18 16 15 24 21 19 28 35 30 28 27 23 21 22 21 23 24 24 27 19 24 26 31 38 43 48 53 57 55 53
34 39 39 33 35 31 29 28 24 24 23 21 19 18 16 18 18 15 25 25 20 25 29 35 33 33 26 26 28 21 22 24 25 26 28 33 31 42 44 46 46 50 54 54 53
31 41 39 33 33 28 26 26 25 26 27 21 20 23 18 17 20 29 31 31 29 28 28 32 32 33 19 32 25 19 23 22 30 37 39 29 41 50 49 50 48 49 50 51 53

GFSSW_sfc_30mbdewp_069.txt.gz
Dewpoint
54 54 54 54 54 54 54 54 54 54 55 55 55 55 57 57 56 50 24 36 52 66 66 59 57 55 55 51 45 45 40 21 20 23 24 25 32 39 42 47 49 49 49 53 58
53 53 54 54 54 53 53 53 54 54 54 55 55 56 57 57 39 28 46 60 63 66 57 51 50 50 48 39 35 34 28 22 23 22 23 23 25 33 41 43 49 51 51 56 57
53 53 53 52 52 53 53 53 53 54 54 54 55 56 57 56 35 31 60 64 64 66 48 48 39 45 38 30 28 30 27 24 23 23 23 25 26 29 36 38 45 50 52 56 57
52 52 52 51 51 52 52 53 53 53 54 54 55 56 57 41 22 47 67 67 66 57 46 43 35 38 33 27 27 25 27 26 23 24 23 29 27 28 31 35 42 48 54 55 57
52 52 52 51 52 52 52 52 52 53 53 54 56 56 40 28 12 60 70 70 57 55 41 38 33 33 29 26 26 26 26 25 23 24 30 30 29 30 33 36 44 49 53 54 56
52 52 52 52 51 52 52 52 52 52 53 55 56 57 41 10 29 56 54 57 44 39 35 30 28 28 24 23 24 26 26 25 23 23 30 29 27 31 39 41 45 50 52 54 55
52 52 52 51 51 51 51 51 51 52 54 56 57 49 20 9 18 44 49 46 41 36 27 25 24 21 21 23 23 22 22 24 21 22 24 25 21 37 37 43 47 50 51 53 54
51 51 51 51 51 51 51 50 51 52 54 57 58 43 19 11 17 35 44 42 39 32 25 17 18 18 20 21 22 20 18 18 19 23 22 22 18 25 35 44 48 49 50 53 56
51 51 51 51 51 50 50 49 50 52 55 56 48 36 12 16 10 18 32 32 32 25 25 20 19 16 14 12 12 16 16 14 17 20 19 21 18 21 30 39 46 49 50 53 57
50 51 51 51 50 49 49 43 45 48 51 47 39 23 15 8 8 9 14 19 19 17 17 20 15 13 12 9 6 8 14 16 14 16 16 18 18 18 27 32 41 49 51 52 55
50 50 51 50 50 48 45 28 27 36 31 14 16 13 8 9 16 16 14 13 15 12 13 14 11 9 10 10 11 9 11 14 17 15 15 13 19 19 26 29 35 48 52 53 53
50 50 50 50 49 48 44 20 22 21 18 16 13 11 16 16 14 12 15 14 15 13 11 8 8 9 8 11 12 12 10 9 10 11 11 13 16 19 25 32 34 44 49 52 53
49 50 50 49 48 43 16 23 25 19 18 8 9 9 7 9 8 10 14 14 14 14 11 7 6 9 7 11 9 9 9 10 9 9 10 14 17 17 23 39 42 40 45 50 52
49 49 49 48 35 17 20 27 18 23 13 2 5 8 11 7 7 10 11 13 13 13 12 9 9 6 6 8 5 4 8 8 7 8 6 11 11 17 20 29 39 40 42 48 52
48 49 49 48 35 18 16 15 17 25 4 3 1 10 10 7 7 8 10 10 13 13 13 10 9 8 7 4 3 4 7 9 10 10 9 7 13 12 21 22 27 35 45 47 52
48 48 48 29 33 24 19 17 20 14 5 3 3 5 6 10 10 9 8 8 12 13 14 13 12 11 9 8 2 6 8 10 9 9 4 7 11 12 17 23 22 39 46 50 53
47 47 46 37 14 17 19 16 14 9 9 6 2 2 2 3 10 10 8 8 7 9 11 12 12 11 11 7 7 8 7 6 7 7 3 7 10 13 12 14 24 30 49 53 55
47 46 39 36 27 27 20 12 12 13 10 7 4 3 2 2 2 8 10 10 11 10 9 10 10 11 11 9 8 7 7 5 7 7 8 14 11 10 13 15 25 45 47 55 55
46 23 21 28 34 31 17 8 12 15 12 9 7 2 3 3 5 4 4 7 10 12 10 9 10 11 11 11 10 7 8 9 7 10 9 10 9 13 13 15 18 43 49 53 54
36 25 20 34 36 28 11 10 12 13 13 12 9 7 2 2 5 5 5 5 4 5 8 9 10 9 10 10 8 6 8 8 8 8 10 8 10 9 15 16 26 41 46 53 52
37 14 36 36 36 20 4 7 11 11 16 14 10 7 6 7 10 8 6 6 6 5 6 7 9 9 8 7 6 7 7 8 10 8 6 7 8 17 15 19 28 42 46 54 52
22 12 33 30 22 12 4 5 8 10 11 13 11 10 11 10 10 10 9 12 18 11 6 7 8 9 8 8 9 8 9 8 9 9 10 12 9 11 14 28 35 41 47 53 55
21 11 31 27 18 13 9 5 5 10 11 11 11 10 8 9 11 11 14 18 22 20 17 10 7 7 9 8 8 8 9 12 11 12 13 13 16 24 27 33 44 45 50 54 53
24 16 27 28 21 20 18 12 7 6 7 9 10 10 9 8 11 14 15 14 18 23 26 29 13 10 6 9 8 9 8 9 9 13 12 11 9 27 37 41 45 47 54 55 52
27 20 34 28 22 18 16 19 20 17 15 17 14 10 10 11 11 12 11 14 15 22 27 22 20 17 15 11 17 12 7 7 7 11 11 21 37 46 44 45 46 49 54 56 55
29 31 35 32 34 31 26 25 26 25 24 22 19 15 13 11 12 11 11 14 15 16 20 25 26 27 19 11 13 10 9 10 9 8 10 10 33 35 46 48 48 48 48 52 56
21 24 33 31 30 29 25 25 26 26 27 24 22 18 17 17 16 12 12 18 22 23 22 24 25 27 16 14 12 10 10 9 10 12 13 29 43 44 46 52 53 53 54 54 52

GFSSW_sfc_30mbdewp_072.txt.gz
Dewpoint
53 54 54 54 54 54 54 54 54 54 55 55 55 56 57 57 56 50 33 34 49 57 63 54 58 55 52 51 49 40 36 30 18 20 21 22 28 35 37 45 47 47 49 54 57
53 53 54 53 53 53 54 54 54 54 54 54 54 55 57 58 38 20 29 54 55 56 49 50 49 49 46 45 36 31 30 24 21 21 21 22 23 27 35 48 49 49 54 55 57
53 53 53 52 52 52 53 53 53 54 54 54 55 56 57 56 27 20 60 58 56 60 39 47 45 38 41 38 31 27 26 26 22 22 21 21 26 27 31 43 51 50 53 55 57
53 52 52 51 51 52 52 52 53 53 53 54 55 56 57 41 23 45 60 60 58 49 42 43 43 37 34 33 27 25 26 26 25 22 23 27 25 25 29 35 46 52 53 55 56
52 52 51 51 51 52 52 52 52 52 52 54 55 57 38 20 22 57 69 66 57 52 45 43 40 35 30 29 25 25 24 26 25 23 24 27 28 31 27 36 39 53 52 54 56
52 52 52 52 52 51 51 51 51 51 52 54 56 57 41 16 37 52 52 54 43 44 42 39 38 32 28 25 23 22 22 24 25 24 23 27 24 30 38 38 42 52 52 53 56
51 52 52 52 51 51 51 50 50 51 51 54 57 50 24 14 14 44 47 44 37 36 31 30 33 28 27 23 21 21 20 19 22 23 21 24 21 27 37 39 42 49 51 52 55
51 51 52 52 51 51 50 49 49 50 52 55 58 46 21 16 14 15 40 41 38 35 31 26 20 16 17 18 18 18 18 15 17 20 22 21 18 30 35 38 44 46 49 51 54
50 51 51 51 51 50 50 49 48 49 54 56 48 37 24 15 11 11 28 37 35 33 27 25 18 16 15 12 11 11 9 14 16 16 21 19 18 20 24 37 41 45 47 50 54
50 50 50 50 50 50 49 46 43 46 48 45 39 26 19 14 11 10 17 31 31 28 22 18 17 13 11 10 7 9 7 11 16 16 19 15 16 18 21 27 33 44 48 50 54
49 50 50 50 49 49 45 34 26 33 30 21 18 16 7 12 12 9 9 12 20 18 16 14 14 11 9 10 10 10 9 9 12 17 17 15 15 14 20 25 26 41 50 50 53
49 49 49 49 49 47 46 25 22 19 14 14 17 19 16 15 8 11 14 8 10 12 13 11 11 12 11 10 9 11 12 11 11 10 10 10 11 14 17 24 28 33 47 50 51
48 49 49 49 47 43 23 16 24 15 13 12 10 7 13 11 12 12 12 12 10 11 13 12 11 9 7 7 6 10 9 7 9 11 11 10 10 13 17 22 29 30 43 49 51
49 49 49 49 34 25 20 22 17 15 15 11 10 8 6 9 10 9 11 12 13 13 15 14 12 9 6 6 7 8 7 7 8 8 5 8 5 18 18 20 30 32 32 46 50
49 48 48 48 31 26 19 17 15 17 10 9 7 11 6 4 12 9 9 8 11 12 14 13 12 10 8 7 7 5 5 4 7 8 9 8 7 9 17 20 29 33 34 39 50
48 48 47 28 38 34 22 15 16 15 11 9 7 3 2 4 5 13 10 9 9 9 13 14 14 11 10 10 9 7 1 3 7 9 6 9 7 8 17 21 23 40 39 40 51
48 46 45 38 18 18 19 16 12 12 13 9 7 7 2 3 4 6 9 8 7 7 11 13 13 13 12 10 10 7 0 4 7 6 5 9 7 10 19 23 27 39 42 48 50
47 45 38 37 30 28 22 15 12 14 13 13 9 7 4 2 3 4 7 7 8 7 7 9 9 12 13 11 9 8 6 4 6 6 9 16 8 12 16 15 27 33 49 51 52
45 33 21 29 35 29 19 13 15 16 14 13 14 10 7 3 3 2 2 8 9 9 9 8 8 11 12 12 11 10 9 8 5 6 6 10 17 15 15 14 15 39 47 51 53
36 31 27 23 31 25 17 11 14 16 14 13 13 11 9 6 4 4 4 5 8 10 11 11 11 10 10 12 12 10 10 7 8 9 10 9 13 13 20 18 19 38 43 51 53
37 21 31 30 32 26 16 13 14 14 15 12 14 12 11 9 9 11 15 9 11 5 6 7 13 11 11 13 11 10 9 9 7 9 7 9 10 19 22 21 30 38 43 51 52
27 17 31 29 24 23 18 14 14 12 12 12 12 14 13 11 14 15 15 18 23 20 4 5 4 7 7 11 13 10 9 8 7 10 13 17 14 19 18 20 26 31 46 53 51
27 22 14 24 13 16 18 15 9 9 9 10 11 13 14 12 11 13 13 16 21 19 25 25 7 7 9 11 12 7 8 8 14 18 15 16 13 31 39 39 42 46 49 55 53
24 17 17 27 19 18 18 19 17 13 9 9 11 12 11 12 11 10 11 14 18 17 22 25 19 22 8 12 15 15 8 8 10 16 14 10 34 43 49 49 49 49 55 55 55
29 20 22 31 28 27 24 18 19 20 20 8 15 12 10 11 12 11 10 12 14 17 16 21 24 23 14 10 10 15 17 11 8 10 11 16 44 48 44 43 51 53 56 54 51
29 24 30 28 30 30 28 24 21 22 29 27 24 21 18 15 12 14 13 12 14 18 24 28 24 24 21 18 18 12 14 16 14 7 6 12 40 43 45 48 48 49 54 55 55
27 25 21 22 27 28 28 29 22 26 27 28 28 25 23 17 24 19 13 14 14 23 27 35 30 27 24 28 28 19 16 29 14 16 25 25 45 51 52 53 53 54 54 53 52

GFSSW_sfc_30mbdewp_075.txt.gz
Dewpoint
53 53 54 54 53 54 54 54 54 54 54 55 55 56 56 58 56 52 37 28 40 55 62 54 56 56 57 53 51 51 46 35 26 20 20 35 37 46 51 47 47 52 55 58 60
53 53 53 53 53 53 53 54 54 53 53 54 54 55 57 58 48 28 22 46 53 55 47 45 48 49 48 45 42 39 32 29 28 21 20 21 26 43 50 48 45 55 57 59 60
53 53 53 52 52 53 53 53 53 53 53 53 54 55 57 57 35 35 63 55 52 52 38 34 45 45 43 36 37 37 27 26 26 24 21 22 26 44 50 47 48 54 56 57 59
52 52 51 51 51 52 53 53 52 52 52 53 54 56 57 49 12 46 58 59 54 52 43 32 39 42 41 36 34 32 26 25 25 25 24 25 27 33 40 45 51 55 56 57 58
51 51 51 52 52 52 52 52 52 51 52 53 54 56 39 24 25 56 64 63 59 53 38 37 42 41 39 34 29 24 24 22 23 24 25 25 26 30 40 48 52 55 56 57 58
51 52 52 52 52 51 51 51 51 51 51 53 54 57 46 16 27 59 54 57 51 47 41 38 43 40 38 31 27 23 20 21 21 21 24 25 26 34 37 52 52 54 55 56 58
51 51 52 52 51 51 50 50 50 50 51 52 55 53 37 12 17 52 51 50 49 41 37 38 38 33 33 27 26 21 17 19 20 19 20 24 23 31 37 50 52 54 55 56 57
50 51 51 51 50 50 50 49 49 49 51 53 57 49 27 22 15 15 43 46 43 38 35 33 30 26 16 17 15 15 16 15 16 18 18 21 19 29 38 41 51 52 53 55 57
50 50 50 50 50 50 50 48 48 50 53 56 51 42 26 26 19 18 17 38 41 37 36 34 28 21 16 14 14 14 12 12 11 13 17 21 19 23 35 43 46 50 52 54 58
49 49 49 49 49 49 49 46 41 47 50 48 42 31 29 14 21 15 11 25 35 35 33 31 21 19 16 14 11 11 11 11 10 14 18 20 19 18 22 41 45 48 52 55 59
49 49 49 49 49 48 46 35 23 32 33 29 29 21 14 17 17 13 11 16 24 33 29 26 17 16 16 14 12 11 11 10 14 15 12 12 17 16 17 23 42 48 51 56 59
49 49 49 48 47 46 47 34 18 23 17 14 13 13 15 16 17 18 11 6 14 20 23 19 17 16 15 15 13 11 11 13 14 13 12 11 10 12 15 17 27 49 51 54 61
49 49 49 48 44 43 27 22 20 16 14 14 14 14 12 9 11 16 10 10 7 12 14 14 15 14 13 13 11 9 8 11 11 9 10 12 12 13 15 15 28 50 50 53 60
49 49 49 48 30 28 26 21 18 15 13 14 14 14 14 10 5 8 14 11 11 8 11 12 14 14 14 12 9 8 11 11 11 8 7 11 9 13 16 14 29 35 51 52 62
48 49 49 47 36 33 27 29 21 17 13 14 11 13 12 9 7 5 10 11 9 11 12 13 14 16 14 12 10 8 8 7 7 5 10 10 10 11 18 18 27 32 46 53 63
48 48 47 36 42 37 32 27 18 14 13 13 12 12 10 9 7 6 6 13 9 7 11 14 15 15 14 14 12 11 8 7 6 4 5 11 13 10 14 18 33 35 39 54 64
48 47 46 39 23 19 31 23 14 12 15 11 11 12 14 10 6 3 2 5 7 4 5 9 12 13 15 14 14 10 9 5 2 6 6 11 11 12 20 34 38 38 46 55 64
48 46 43 42 40 37 30 21 13 16 14 14 14 14 15 12 7 3 4 4 9 8 7 6 8 12 13 14 14 11 11 6 1 8 11 14 13 13 21 23 41 41 49 55 63
46 35 34 34 37 35 26 16 15 18 17 15 14 14 16 14 12 9 9 5 9 9 9 8 9 14 13 14 13 14 9 13 10 9 9 9 13 20 28 33 41 49 50 53 62
40 35 35 31 35 30 23 17 17 17 16 15 14 15 15 14 14 15 17 17 20 14 16 10 10 12 12 12 12 12 15 9 12 7 9 13 17 22 23 34 49 51 51 54 60
41 33 27 31 32 29 22 19 18 17 14 14 14 14 13 15 16 14 16 18 20 21 21 22 13 12 12 11 11 13 14 12 11 13 10 11 14 27 23 34 43 50 53 54 57
29 27 33 32 27 26 25 24 20 16 13 12 13 13 13 14 15 16 15 16 20 19 18 25 24 12 11 12 15 14 13 14 11 10 18 13 13 47 30 36 44 48 41 52 56
31 29 29 25 19 16 17 19 20 18 10 10 10 11 14 16 15 18 16 16 16 18 24 25 24 22 13 12 9 11 13 17 17 17 10 11 23 49 50 47 53 53 49 54 54
28 24 26 24 27 26 22 21 21 19 21 22 14 11 12 13 16 18 17 16 16 16 24 23 24 29 24 23 21 14 19 19 16 15 11 15 31 45 44 49 56 58 57 62 53
32 29 28 27 27 29 31 31 26 23 21 29 30 21 16 14 16 15 16 17 18 17 23 26 25 32 27 25 20 20 19 20 17 17 20 19 38 44 41 44 60 59 54 58 60
30 26 26 23 24 25 30 31 30 24 25 29 29 30 29 28 24 23 18 17 18 22 24 37 29 36 30 28 29 25 29 28 33 37 32 35 43 43 45 53 56 52 56 62 60
35 32 30 22 20 21 26 34 33 32 27 28 29 28 30 30 32 33 29 27 22 18 27 33 30 31 30 32 28 24 46 44 45 45 48 44 52 55 55 56 57 58 60 61 62